Theta_e
322 324 331 334 333 330 333 336 337 343 344 340 342 343 344 341 344 343 338 336 328 325 330 331 327 327 327 328 329 331 332 332 332 332 334 334 336 333 329 325 323 322 323 322 321 321 320 320 319
330 330 333 330 334 337 336 331 340 341 341 339 342 343 345 343 342 338 338 333 325 325 328 328 326 326 327 328 330 331 332 332 332 333 333 333 333 329 324 322 322 322 323 322 322 321 322 322 322
334 335 332 334 334 339 336 334 339 340 341 341 342 340 341 343 341 338 337 336 325 326 327 327 325 326 328 329 331 332 332 332 335 336 335 333 331 325 321 322 322 323 324 324 323 322 323 323 323
334 331 331 336 340 338 338 337 338 338 336 339 339 340 338 340 340 341 336 332 326 325 327 328 326 326 327 329 330 331 331 333 337 337 336 332 328 325 322 324 325 326 326 326 325 324 324 324 324
331 329 335 339 339 339 337 333 335 337 339 341 339 340 339 337 340 340 338 325 324 325 327 325 325 325 326 328 330 331 331 333 336 336 334 330 328 326 323 325 327 328 327 326 326 326 324 322 322
320 326 336 339 341 339 335 334 337 340 341 340 337 338 337 340 341 337 327 324 324 324 325 325 325 325 326 328 330 331 332 333 335 334 331 328 326 326 325 325 327 327 327 328 327 326 324 319 318
319 326 335 338 338 338 337 332 338 339 341 342 336 341 337 340 341 337 328 326 326 325 326 325 324 325 326 328 329 331 332 333 335 333 331 325 324 325 326 327 327 328 327 328 327 324 322 319 317
318 327 336 338 338 337 335 332 333 336 339 337 337 340 339 336 341 341 336 332 331 330 328 325 324 324 326 327 329 330 331 334 332 328 329 327 324 325 327 327 329 330 329 329 326 320 319 319 318
318 322 332 336 337 335 332 331 330 333 337 338 337 337 336 337 342 342 341 339 340 336 334 328 325 326 326 327 328 330 331 334 328 327 329 329 328 327 327 328 329 330 331 329 321 320 320 320 320
318 319 323 330 332 333 333 330 331 335 339 337 340 338 337 338 342 344 344 343 342 342 341 336 327 325 327 328 329 330 331 333 327 330 332 330 330 333 336 335 334 333 329 322 321 321 321 321 320
318 319 321 328 332 331 332 333 330 332 334 337 339 339 337 336 341 344 344 344 342 342 342 340 328 326 327 328 328 330 331 333 329 333 331 330 332 334 332 331 332 327 322 322 322 321 321 321 318
320 319 323 328 332 331 332 330 332 329 330 335 338 338 336 336 334 336 337 339 342 342 342 338 331 329 328 329 329 329 332 332 333 336 333 332 333 334 330 329 328 324 323 323 322 320 321 320 318
319 320 324 329 329 331 331 332 332 330 332 338 338 338 336 335 336 336 336 337 338 340 340 340 339 336 331 331 332 333 334 335 335 338 335 331 330 335 333 329 325 324 323 323 322 321 321 319 319
322 323 322 328 329 331 332 333 332 330 334 339 339 338 336 337 338 338 340 334 333 333 335 339 340 338 339 338 338 340 340 338 337 339 334 330 329 335 332 329 326 325 325 324 323 322 321 320 320
323 325 324 328 331 334 333 335 334 331 336 339 338 337 337 338 338 335 335 335 330 330 331 337 336 336 339 342 342 341 341 340 339 336 334 332 334 333 331 331 327 325 324 324 324 322 322 321 320
325 323 325 325 332 331 328 326 326 328 337 338 338 339 338 334 336 337 336 333 330 330 329 335 333 330 331 343 343 341 340 337 336 336 335 335 335 332 332 331 326 325 325 325 324 323 322 320 319
321 326 329 329 327 333 329 325 324 328 335 337 336 338 337 336 336 339 340 337 334 332 327 325 327 327 333 339 338 337 334 334 334 334 333 333 333 333 332 331 326 325 325 325 324 323 321 319 317
323 328 329 330 327 324 326 333 331 331 337 338 336 336 337 338 338 339 340 341 337 332 330 334 337 339 339 338 337 335 335 335 335 334 333 334 333 332 332 328 327 326 325 324 323 321 319 316 314
325 326 330 329 324 330 331 333 333 332 335 337 336 336 336 337 337 338 341 341 338 333 331 336 339 341 341 339 338 337 336 334 334 334 333 333 332 332 332 329 327 325 326 324 322 319 316 314 314
327 325 324 322 330 331 331 332 332 332 334 335 335 335 335 338 337 335 335 335 336 334 336 332 333 327 334 337 341 339 336 334 334 333 333 333 333 331 331 329 326 326 324 322 319 316 315 314 314
324 326 326 326 327 328 329 327 328 330 330 333 336 334 334 339 338 335 332 335 331 329 329 328 328 327 330 332 339 336 335 332 334 327 325 323 322 322 322 321 321 322 320 318 316 315 315 314 314
328 326 327 329 324 330 327 329 327 326 327 327 325 337 337 338 335 335 332 329 328 327 328 330 328 328 328 329 333 335 336 332 327 326 323 322 322 321 321 320 319 317 316 316 315 315 315 315 313
330 327 328 327 326 329 330 332 327 324 326 326 336 340 338 335 332 335 336 335 334 333 330 331 332 334 331 326 329 334 333 328 325 323 324 322 320 319 318 317 317 316 316 315 315 315 315 313 313
328 326 323 325 325 331 329 329 327 326 325 328 335 335 337 336 336 334 335 334 331 331 330 331 333 333 334 331 334 331 329 325 323 321 320 319 318 317 316 314 314 314 314 315 314 313 312 311 311
324 324 327 329 333 332 326 329 327 327 327 331 333 332 330 330 332 330 329 330 331 329 326 327 330 333 332 330 326 324 322 321 320 319 318 316 315 314 312 311 311 311 312 313 312 312 311 310 310
329 325 327 332 334 331 327 330 329 326 325 327 331 330 330 329 327 329 329 327 326 326 326 327 326 324 323 322 322 322 320 318 317 315 314 312 310 310 310 309 307 308 308 309 309 309 311 311 311
331 333 328 327 325 328 328 327 328 328 329 328 328 328 328 328 327 327 327 326 324 323 322 323 322 322 322 320 318 316 314 312 311 310 309 309 308 308 308 308 308 309 310 310 310 311 311 311 310
327 330 329 326 328 334 330 329 327 330 330 328 328 328 326 324 324 323 324 325 324 323 322 323 321 319 317 316 315 312 310 310 310 308 308 308 308 309 309 309 309 310 310 309 310 311 311 310 310
328 331 329 325 323 328 331 330 329 329 329 329 327 326 324 323 323 322 323 323 324 322 322 320 319 318 317 314 311 310 310 309 309 309 308 309 309 309 310 309 309 310 307 306 307 308 309 310 310
330 330 325 326 328 327 328 334 328 329 327 326 328 329 324 321 321 322 323 323 323 322 320 319 318 316 313 311 310 310 310 309 309 309 309 309 310 310 310 310 310 308 307 308 309 310 310 310 311
Wind_Speed
11 11 11 3 4 5 4 5 1 4 3 2 8 3 7 2 4 3 1 22 19 29 26 21 18 16 15 14 13 11 10 9 9 9 9 8 8 9 9 9 10 10 10 10 11 12 13 13 14
16 14 2 2 5 4 5 5 3 3 4 7 6 5 3 2 3 6 14 15 27 29 26 23 20 17 16 14 13 11 10 9 9 9 8 8 8 8 8 8 8 8 8 9 10 11 12 13 14
8 5 3 5 3 1 2 2 5 2 4 1 3 4 3 3 3 12 7 18 28 27 25 22 20 18 16 14 12 10 9 8 8 7 7 8 8 8 9 8 7 6 7 8 9 10 11 13 15
4 2 4 5 2 4 2 3 4 4 4 4 3 5 3 3 16 11 23 23 28 25 23 21 19 18 16 14 12 10 9 9 8 7 6 6 8 8 7 6 7 8 7 8 8 10 12 14 15
3 3 5 4 3 3 2 7 6 7 4 1 2 2 4 1 7 19 27 28 27 25 24 22 20 18 16 14 11 10 10 9 8 6 7 7 7 7 6 4 5 5 6 7 8 9 11 14 16
4 3 4 1 2 4 5 8 5 4 4 3 4 4 2 11 22 24 27 27 26 26 25 23 20 17 15 13 12 11 11 10 9 9 9 9 8 7 5 5 1 1 3 6 8 9 10 12 16
6 4 4 4 3 5 1 6 4 6 7 3 6 4 1 6 21 28 27 25 25 25 25 23 20 19 16 14 12 11 10 10 11 10 11 11 10 9 7 7 7 5 5 6 8 8 8 10 15
5 4 6 5 4 4 2 3 4 6 6 4 4 6 5 10 27 25 23 23 24 26 25 23 21 21 18 17 15 14 14 13 12 12 12 12 11 11 10 9 9 8 8 8 7 6 8 12 15
4 4 3 7 7 7 6 7 3 2 6 4 7 5 9 26 26 23 21 22 23 26 25 24 22 21 20 20 18 17 16 15 13 13 12 11 11 13 14 14 13 9 9 4 3 7 10 13 15
4 3 9 8 7 8 7 6 8 5 7 2 2 3 23 26 27 21 18 22 30 29 27 25 23 23 22 21 20 19 17 16 14 15 12 11 14 14 14 14 13 10 7 4 5 8 13 16 19
5 7 7 7 9 9 8 4 5 11 4 7 15 11 14 21 20 19 22 22 28 21 21 26 26 25 26 25 24 21 20 18 15 15 13 13 10 5 3 4 5 6 6 5 7 13 17 20 18
2 9 6 4 8 7 8 7 5 6 9 10 15 18 13 10 13 19 15 18 23 17 21 26 27 27 26 26 23 22 20 19 18 16 14 12 10 7 6 5 6 7 8 5 8 13 17 21 20
6 5 7 5 11 11 5 4 5 8 6 12 13 15 12 9 10 12 14 5 10 25 31 20 15 20 25 29 23 22 22 21 22 18 16 13 15 9 8 7 8 7 7 7 12 14 17 17 17
3 7 3 5 6 4 6 2 3 5 8 13 15 12 8 8 13 9 12 19 19 14 18 17 13 8 30 30 25 22 22 22 20 17 15 13 15 12 10 11 11 12 11 11 11 13 14 14 14
2 5 6 4 3 3 5 5 7 2 15 15 11 6 7 4 10 16 13 23 23 22 19 13 16 15 37 29 20 21 16 18 17 16 15 15 16 16 16 16 17 17 13 11 11 11 14 14 16
5 6 5 4 6 3 5 7 4 8 14 8 6 6 5 6 12 16 16 25 19 27 13 12 9 24 48 26 8 12 14 14 16 18 17 18 18 18 20 21 21 18 14 12 14 17 17 16 16
7 3 4 2 5 6 5 7 10 2 9 6 8 5 4 4 9 17 13 22 12 11 6 4 30 38 44 10 10 12 13 13 15 17 17 18 20 22 24 21 21 19 17 16 17 17 15 14 15
7 2 3 4 3 9 4 5 9 7 6 2 6 2 5 8 9 15 12 6 8 6 7 13 17 25 16 13 12 10 13 14 17 20 20 19 24 25 26 23 23 21 17 17 16 12 11 11 13
3 4 2 1 5 9 5 8 10 8 6 4 5 2 7 8 7 15 12 8 3 10 14 15 1 1 5 4 12 14 12 14 20 23 24 23 19 17 20 22 19 17 20 18 13 11 10 11 14
3 3 5 6 11 9 2 6 3 5 2 2 6 1 6 6 7 7 8 10 15 5 6 9 15 10 9 11 6 7 5 11 16 13 8 9 13 13 16 15 17 19 16 14 11 9 8 12 12
2 5 1 6 4 3 5 11 10 6 5 5 6 8 9 10 7 4 8 13 8 4 1 10 14 15 13 9 9 8 10 13 9 5 9 11 9 8 7 8 9 9 8 9 11 12 11 12 18
6 7 3 4 5 3 3 1 7 10 11 8 10 7 8 8 5 6 9 12 12 5 12 12 10 14 12 14 16 19 17 6 4 4 6 7 7 8 9 9 9 9 10 12 13 15 17 14 16
3 1 14 5 6 6 9 5 7 7 10 8 12 11 8 6 5 6 8 10 12 13 15 16 16 18 18 19 21 19 9 7 7 6 7 7 8 9 9 8 11 10 10 12 12 15 14 14 16
2 4 8 4 3 5 6 4 6 5 4 3 4 8 6 5 6 5 4 10 12 17 19 21 20 20 17 21 18 10 8 7 8 11 13 13 13 11 10 10 12 12 13 15 15 15 13 12 15
8 8 4 5 5 3 6 7 4 6 6 1 4 5 2 5 6 6 8 15 18 19 21 18 15 15 12 9 14 15 15 14 14 14 15 14 13 14 16 17 16 15 14 14 13 13 17 17 18
4 6 5 2 2 2 5 4 3 6 8 7 4 3 4 5 4 5 10 11 11 13 13 14 17 18 17 17 18 17 15 15 14 12 12 12 13 13 12 12 14 14 14 14 15 14 12 14 14
1 6 3 6 3 4 1 4 5 7 7 6 7 8 7 5 4 5 8 10 13 14 13 13 15 17 16 17 17 16 14 13 12 12 12 13 13 12 10 12 12 13 11 10 10 10 11 11 11
7 4 4 4 3 1 3 3 4 4 4 5 5 3 6 7 8 6 10 10 11 12 11 13 15 16 14 14 14 14 15 14 14 14 13 13 13 10 10 12 12 12 12 11 11 9 9 10 10
5 3 5 4 3 4 2 4 1 5 3 5 5 4 5 5 5 6 9 8 8 9 12 14 11 9 11 12 12 12 13 12 13 16 14 14 13 14 14 12 11 12 12 13 11 11 11 12 14
0 4 4 5 2 2 3 4 3 2 3 6 6 3 3 5 4 5 5 4 5 8 9 7 7 11 10 9 10 11 12 13 14 15 15 14 16 15 14 13 12 12 14 14 13 11 12 16 17
Wind_Direction
144 148 144 91 49 61 347 316 314 126 165 204 138 148 170 157 161 215 320 162 173 167 167 167 166 163 160 156 152 147 141 131 123 120 117 114 109 103 98 93 84 75 68 62 54 47 41 35 31
150 150 149 76 72 45 301 294 243 202 174 145 134 147 138 115 98 102 125 165 168 167 166 169 171 168 166 164 162 157 147 138 137 138 135 128 124 115 100 85 76 68 57 54 52 40 33 27 22
161 174 85 88 94 192 231 332 268 60 139 105 62 63 74 161 90 148 180 169 170 168 170 172 174 173 173 171 167 162 154 151 154 150 148 142 139 135 120 105 82 60 46 43 44 37 23 17 13
221 29 44 79 342 264 226 90 239 108 357 20 111 76 38 233 153 168 167 167 170 171 173 177 178 180 179 178 175 170 169 171 173 174 174 171 166 163 147 123 97 72 47 34 36 35 22 15 8
47 62 45 41 297 216 276 176 211 153 164 161 111 102 114 123 163 155 167 169 174 174 177 182 186 188 186 184 181 182 185 186 186 191 197 195 194 194 179 127 86 67 54 26 8 12 18 14 1
34 84 53 266 264 305 308 159 180 160 167 143 89 87 128 146 151 165 169 177 180 178 182 187 190 193 194 191 191 197 198 199 201 205 204 209 213 217 205 211 148 8 8 5 355 356 1 6 5
114 89 164 255 258 323 125 120 218 169 150 164 158 108 88 148 163 170 177 180 185 186 188 191 194 197 200 198 202 209 214 218 222 223 218 212 218 226 226 234 246 277 324 346 345 342 355 1 1
114 96 150 232 209 258 217 181 194 189 176 103 147 172 188 172 169 171 179 186 191 194 197 198 199 201 200 203 205 211 217 222 228 229 230 230 236 243 248 251 257 272 303 330 324 348 3 355 358
75 82 231 214 161 221 190 181 171 211 117 206 187 166 168 158 168 167 176 191 199 204 206 204 204 207 207 209 209 215 217 224 234 240 242 253 256 262 261 261 262 264 302 307 310 343 346 347 342
120 147 222 211 171 210 192 163 179 124 143 278 103 79 149 147 155 163 180 193 203 208 210 212 210 214 215 217 218 221 223 227 232 245 250 267 273 275 270 267 260 251 259 263 303 336 338 337 337
180 203 205 223 194 194 177 172 197 131 202 207 170 173 171 154 160 170 197 197 208 220 225 217 216 218 218 218 220 221 225 229 236 251 262 282 259 257 186 164 187 199 236 259 311 330 332 337 338
276 246 201 169 185 163 187 125 174 176 215 186 173 171 169 178 162 183 177 202 214 214 225 223 224 222 221 226 228 232 235 236 240 268 277 274 223 227 215 212 231 225 245 278 322 331 331 331 332
191 285 138 182 166 198 116 157 171 197 196 165 176 165 171 172 177 150 146 95 38 26 24 6 254 243 247 228 232 234 237 240 246 265 269 248 234 234 236 239 241 252 281 289 310 321 326 324 325
264 15 96 160 167 139 109 291 167 165 179 176 179 166 151 171 163 131 82 50 35 22 9 25 340 301 270 246 239 237 239 246 251 262 266 240 222 241 248 247 250 261 274 284 295 311 318 320 314
285 177 30 38 113 90 141 295 224 162 181 180 185 141 181 115 91 68 71 56 69 51 348 336 329 260 307 239 239 245 246 251 254 246 246 237 238 254 252 250 253 258 248 267 284 305 309 311 312
37 52 46 285 161 175 96 281 38 183 171 174 180 164 189 92 82 77 95 97 77 42 52 181 235 241 271 238 239 217 228 236 241 241 242 244 248 254 258 255 254 256 257 275 291 307 302 302 307
14 352 21 53 218 118 37 326 340 149 131 148 214 169 152 83 68 73 105 105 100 46 114 148 194 229 248 191 175 198 208 221 237 236 244 249 253 261 253 260 259 264 270 277 290 289 285 296 307
285 360 353 340 39 67 98 7 6 50 104 112 350 63 73 37 36 75 88 106 166 200 197 183 214 213 192 188 172 196 218 229 233 234 242 252 261 263 247 247 260 257 263 278 272 269 280 292 311
225 150 117 248 1 70 39 34 24 42 52 66 272 322 74 60 62 48 105 178 233 237 220 215 58 177 237 215 185 194 214 236 252 241 246 270 272 263 252 267 261 257 267 267 269 279 280 301 318
105 53 358 18 75 87 10 33 316 60 85 206 251 196 78 67 53 48 120 169 212 261 261 231 242 335 327 287 292 254 251 254 269 252 282 287 278 267 266 273 274 289 280 285 276 272 301 308 314
110 99 187 123 130 82 69 25 360 10 8 346 343 92 140 149 136 144 153 188 215 200 315 291 293 294 323 317 315 303 299 280 295 24 21 33 33 24 10 354 345 329 320 301 295 282 288 299 278
53 328 324 157 120 148 28 194 11 334 43 30 3 67 137 130 141 178 189 222 226 263 306 326 345 345 330 346 350 341 327 342 63 26 61 36 1 348 338 333 324 320 303 295 295 292 274 255 271
128 113 90 58 86 93 4 74 315 347 16 3 5 20 108 125 143 192 234 260 312 311 326 340 328 327 333 316 326 330 330 44 70 55 356 8 16 1 353 349 332 324 307 296 283 273 269 269 273
79 83 50 52 75 42 315 108 333 4 315 346 349 32 48 134 194 213 317 338 336 349 350 347 345 324 317 318 327 356 24 56 24 23 27 15 5 355 357 354 342 331 315 303 299 301 297 291 284
61 56 6 17 21 195 320 63 344 346 3 66 61 58 22 17 10 16 3 360 346 350 343 336 337 349 359 43 61 59 58 53 42 24 13 5 359 349 340 338 338 333 325 317 313 304 298 297 290
34 101 138 147 153 246 356 48 314 355 23 41 45 101 47 40 26 11 10 360 18 44 57 66 65 70 66 62 62 58 48 38 28 14 3 358 352 348 343 342 339 336 333 317 307 304 306 300 292
33 46 189 102 11 65 307 92 22 8 40 38 42 44 23 25 34 33 31 58 68 63 59 67 73 73 73 70 63 54 41 28 22 19 15 7 359 360 352 350 350 351 356 351 338 324 317 311 307
96 150 32 14 113 112 332 107 182 261 317 329 21 358 29 23 42 48 53 53 60 64 66 79 78 74 70 62 51 43 36 27 27 18 17 17 18 4 359 357 360 356 356 359 358 354 341 331 317
15 27 58 113 108 147 167 269 150 200 284 302 268 326 8 46 51 45 55 62 73 72 84 88 74 66 64 56 51 48 39 37 34 32 31 25 19 15 13 9 6 3 1 354 348 349 341 331 324
57 148 126 114 288 53 127 269 207 200 292 288 276 320 54 74 65 56 49 92 86 83 100 90 88 78 66 64 59 49 41 34 26 29 30 24 20 16 12 13 11 8 359 352 352 353 353 339 331